| time (UTC) | temp F | wind direction | speed MPH | gust MPH | rain 1hr in | rain 24hr in | rain mn in | humidity % | barometer mb |
| 20260507031513 | 53 | 352 | 2.0 | 14.0 | 0.00 | 0.03 | 0.02 | 93 | 1019.5 |
| 20260507030021 | 54 | 348 | 0.0 | 5.0 | 0.00 | 0.03 | 0.02 | 92 | 1019.3 |
| 20260507024514 | 54 | 323 | 0.0 | 10.0 | 0.00 | 0.03 | 0.02 | 92 | 1019.5 |
| 20260507023009 | 54 | 346 | 0.0 | 7.0 | 0.00 | 0.03 | 0.02 | 92 | 1019.4 |
| 20260507021509 | 55 | 1 | 0.0 | 13.0 | 0.00 | 0.03 | 0.02 | 91 | 1019.4 |
| 20260507020009 | 55 | 7 | 6.0 | 14.0 | 0.00 | 0.03 | 0.02 | 91 | 1019.5 |
| 20260507014511 | 55 | 2 | 7.0 | 18.0 | 0.00 | 0.03 | 0.02 | 90 | 1019.5 |
| 20260507013010 | 55 | 355 | 10.0 | 17.0 | 0.00 | 0.03 | 0.02 | 90 | 1019.7 |
| 20260507011504 | 55 | 356 | 4.0 | 16.0 | 0.00 | 0.03 | 0.02 | 90 | 1019.9 |
| 20260507010004 | 56 | 329 | 4.0 | 13.0 | 0.00 | 0.03 | 0.02 | 88 | 1019.9 |
| 20260507004500 | 57 | 27 | 0.0 | 15.0 | 0.00 | 0.03 | 0.02 | 88 | 1019.8 |
| 20260507003100 | 57 | 348 | 3.0 | 14.0 | 0.00 | 0.03 | 0.02 | 89 | 1019.7 |
| 20260507003000 | 57 | 341 | 5.0 | 14.0 | 0.00 | 0.03 | 0.02 | 88 | 1019.8 |
| 20260507001611 | 57 | 357 | 2.0 | 14.0 | 0.00 | 0.03 | 0.02 | 88 | 1019.8 |
| 20260507000100 | 58 | 355 | 4.0 | 13.0 | 0.00 | 0.03 | 0.02 | 88 | 1019.9 |
| 20260506234600 | 57 | 329 | 4.0 | 15.0 | 0.00 | 0.03 | 0.02 | 88 | 1019.9 |
| 20260506233100 | 57 | 3 | 5.0 | 14.0 | 0.00 | 0.03 | 0.02 | 88 | 1020.0 |
| 20260506231609 | 58 | 2 | 8.0 | 14.0 | 0.00 | 0.03 | 0.02 | 88 | 1020.2 |
| 20260506230111 | 58 | 342 | 1.0 | 15.0 | 0.00 | 0.03 | 0.02 | 89 | 1020.4 |
| 20260506224556 | 58 | 339 | 5.0 | 14.0 | 0.00 | 0.03 | 0.02 | 87 | 1020.5 |
| 20260506223056 | 58 | 325 | 5.0 | 16.0 | 0.01 | 0.03 | 0.02 | 87 | 1020.5 |
| 20260506221615 | 58 | 323 | 1.0 | 14.0 | 0.01 | 0.03 | 0.02 | 88 | 1020.7 |
| 20260506220113 | 59 | 346 | 3.0 | 11.0 | 0.01 | 0.03 | 0.02 | 86 | 1020.8 |
| 20260506214553 | 58 | 333 | 0.0 | 11.0 | 0.01 | 0.03 | 0.02 | 87 | 1020.8 |
| 20260506213105 | 58 | 352 | 0.0 | 11.0 | 0.00 | 0.02 | 0.01 | 87 | 1020.8 |
| 20260506211553 | 58 | 358 | 2.0 | 12.0 | 0.00 | 0.02 | 0.01 | 87 | 1021.0 |
| 20260506210056 | 58 | 359 | 4.0 | 14.0 | 0.00 | 0.02 | 0.01 | 87 | 1021.0 |
| 20260506204554 | 58 | 331 | 5.0 | 14.0 | 0.00 | 0.02 | 0.01 | 88 | 1021.1 |
| 20260506203049 | 58 | 329 | 3.0 | 14.0 | 0.00 | 0.02 | 0.01 | 88 | 1021.2 |
| 20260506201550 | 58 | 341 | 6.0 | 13.0 | 0.00 | 0.02 | 0.01 | 89 | 1021.5 |
| 20260506200048 | 58 | 347 | 0.0 | 12.0 | 0.00 | 0.02 | 0.01 | 88 | 1021.4 |
| 20260506194547 | 58 | 322 | 1.0 | 13.0 | 0.00 | 0.02 | 0.01 | 90 | 1021.4 |
| 20260506193046 | 57 | 26 | 2.0 | 14.0 | 0.00 | 0.02 | 0.01 | 89 | 1021.6 |
| 20260506191549 | 58 | 346 | 3.0 | 11.0 | 0.00 | 0.02 | 0.01 | 89 | 1021.7 |
| 20260506190043 | 58 | 8 | 7.0 | 11.0 | 0.00 | 0.02 | 0.01 | 89 | 1021.7 |
| 20260506184553 | 58 | 329 | 3.0 | 9.0 | 0.00 | 0.02 | 0.01 | 89 | 1021.6 |
| 20260506183041 | 58 | 352 | 0.0 | 3.0 | 0.00 | 0.02 | 0.01 | 90 | 1021.8 |
| 20260506181539 | 57 | 335 | 0.0 | 11.0 | 0.00 | 0.02 | 0.01 | 90 | 1021.6 |
| 20260506180040 | 57 | 316 | 0.0 | 0.0 | 0.01 | 0.02 | 0.01 | 91 | 1021.4 |
| 20260506174537 | 56 | 318 | 0.0 | 5.0 | 0.01 | 0.02 | 0.01 | 92 | 1021.5 |
| 20260506173039 | 57 | 341 | 0.0 | 0.0 | 0.01 | 0.02 | 0.01 | 90 | 1021.4 |
| 20260506171544 | 57 | 356 | 0.0 | 0.0 | 0.01 | 0.02 | 0.01 | 91 | 1021.2 |
| 20260506170030 | 57 | 292 | 0.0 | 0.0 | 0.00 | 0.01 | 0.00 | 92 | 1021.2 |
| 20260506164529 | 56 | 306 | 0.0 | 1.0 | 0.00 | 0.01 | 0.00 | 93 | 1021.2 |
| 20260506163028 | 56 | 311 | 0.0 | 1.0 | 0.00 | 0.01 | 0.00 | 94 | 1021.1 |
| 20260506161528 | 56 | 300 | 0.0 | 0.0 | 0.00 | 0.01 | 0.00 | 94 | 1021.2 |
| 20260506160028 | 55 | 299 | 0.0 | 1.0 | 0.00 | 0.01 | 0.00 | 95 | 1021.2 |
| 20260506154522 | 55 | 291 | 0.0 | 0.0 | 0.00 | 0.01 | 0.00 | 95 | 1021.0 |
| 20260506153021 | 54 | 291 | 0.0 | 0.0 | 0.00 | 0.01 | 0.00 | 95 | 1020.9 |
| 20260506151524 | 54 | 239 | 0.0 | 0.0 | 0.00 | 0.01 | 0.00 | 95 | 1021.0 |
| 20260506150018 | 54 | 206 | 0.0 | 0.0 | 0.00 | 0.01 | 0.00 | 96 | 1021.0 |
| 20260506144516 | 53 | 206 | 0.0 | 0.0 | 0.00 | 0.01 | 0.00 | 96 | 1020.8 |
| 20260506143017 | 53 | 206 | 0.0 | 0.0 | 0.00 | 0.01 | 0.00 | 96 | 1020.7 |
| 20260506141514 | 53 | 206 | 0.0 | 0.0 | 0.00 | 0.01 | 0.00 | 96 | 1020.6 |
| 20260506140018 | 53 | 205 | 0.0 | 0.0 | 0.00 | 0.01 | 0.00 | 96 | 1020.6 |
| 20260506134513 | 53 | 205 | 0.0 | 0.0 | 0.00 | 0.01 | 0.00 | 96 | 1020.5 |
| 20260506133052 | 53 | 205 | 0.0 | 0.0 | 0.00 | 0.01 | 0.00 | 96 | 1020.3 |
| 20260506131604 | 53 | 205 | 0.0 | 0.0 | 0.00 | 0.01 | 0.00 | 95 | 1020.3 |
| 20260506130052 | 53 | 205 | 0.0 | 0.0 | 0.00 | 0.01 | 0.00 | 95 | 1020.3 |
| 20260506124549 | 53 | 205 | 0.0 | 0.0 | 0.00 | 0.01 | 0.00 | 95 | 1020.1 |
| 20260506123051 | 53 | 212 | 0.0 | 0.0 | 0.00 | 0.01 | 0.00 | 95 | 1020.0 |
| 20260506121547 | 53 | 212 | 0.0 | 0.0 | 0.00 | 0.01 | 0.00 | 95 | 1020.0 |
| 20260506120051 | 53 | 212 | 0.0 | 0.0 | 0.00 | 0.01 | 0.00 | 95 | 1019.8 |
| 20260506114551 | 53 | 212 | 0.0 | 0.0 | 0.00 | 0.01 | 0.00 | 95 | 1019.7 |
| 20260506113042 | 53 | 212 | 0.0 | 0.0 | 0.00 | 0.01 | 0.00 | 95 | 1019.7 |
| 20260506111541 | 53 | 212 | 0.0 | 0.0 | 0.00 | 0.01 | 0.00 | 95 | 1019.7 |
| 20260506110040 | 53 | 212 | 0.0 | 0.0 | 0.00 | 0.01 | 0.00 | 95 | 1019.4 |
| 20260506104543 | 53 | 212 | 0.0 | 0.0 | 0.00 | 0.01 | 0.00 | 95 | 1019.3 |
| 20260506103038 | 53 | 212 | 0.0 | 0.0 | 0.00 | 0.01 | 0.00 | 95 | 1019.3 |
| 20260506101537 | 53 | 212 | 0.0 | 0.0 | 0.00 | 0.01 | 0.00 | 95 | 1019.3 |
| 20260506100039 | 53 | 216 | 0.0 | 0.0 | 0.00 | 0.01 | 0.00 | 95 | 1019.1 |
| 20260506094536 | 53 | 236 | 0.0 | 0.0 | 0.00 | 0.01 | 0.00 | 95 | 1019.1 |
| 20260506093035 | 53 | 282 | 0.0 | 0.0 | 0.00 | 0.01 | 0.00 | 95 | 1019.1 |
| 20260506091534 | 53 | 335 | 0.0 | 0.0 | 0.00 | 0.01 | 0.00 | 95 | 1019.2 |
| 20260506090034 | 53 | 335 | 0.0 | 0.0 | 0.00 | 0.01 | 0.00 | 95 | 1019.2 |
| 20260506084539 | 53 | 335 | 0.0 | 0.0 | 0.00 | 0.01 | 0.00 | 95 | 1019.1 |
| 20260506083033 | 53 | 335 | 0.0 | 0.0 | 0.00 | 0.01 | 0.00 | 95 | 1019.2 |
| 20260506081533 | 53 | 335 | 0.0 | 0.0 | 0.00 | 0.01 | 0.00 | 95 | 1019.2 |
| 20260506073027 | 53 | 346 | 0.0 | 0.0 | 0.00 | 0.01 | 0.00 | 95 | 1019.0 |
| 20260506071527 | 53 | 346 | 0.0 | 0.0 | 0.00 | 0.01 | 0.00 | 95 | 1018.9 |
| 20260506061521 | 54 | 347 | 0.0 | 0.0 | 0.00 | 0.02 | 0.01 | 95 | 1018.5 |
| 20260506044526 | 54 | 341 | 0.0 | 2.0 | 0.00 | 0.02 | 0.01 | 94 | 1017.8 |
| 20260506043015 | 54 | 339 | 0.0 | 2.0 | 0.00 | 0.02 | 0.01 | 94 | 1017.7 |
| 20260506041514 | 54 | 342 | 0.0 | 0.0 | 0.00 | 0.02 | 0.01 | 94 | 1017.6 |
| 20260506040013 | 54 | 27 | 0.0 | 0.0 | 0.01 | 0.02 | 0.01 | 94 | 1017.5 |
| 20260506034510 | 54 | 8 | 0.0 | 0.0 | 0.01 | 0.02 | 0.01 | 94 | 1017.1 |
| 20260506033008 | 54 | 355 | 0.0 | 0.0 | 0.01 | 0.02 | 0.01 | 94 | 1017.0 |